Regional Weather Roundup
Issued by NWS Raleigh/Durham, NC

Home | Current Version | Previous Version | Text Only | Print | Product List | Glossary On
Versions: 1 2 3 4 5 6 7 8 9 10 11 12 13 14 15 16 17 18 19 20 21 22 23 24 25 26 27 28 29 30 31 32 33 34 35 36 37 38 39 40 41 42 43 44 45 46 47 48 49 50
000
ASUS42 KRAH 260310
RWRRAH
NORTH CAROLINA WEATHER ROUNDUP
NATIONAL WEATHER SERVICE RALEIGH NC
1000 PM EST SAT FEB 25 2017

NOTE: "FAIR" INDICATES FEW OR NO CLOUDS BELOW 12,000 FEET WITH NO
SIGNIFICANT WEATHER AND/OR OBSTRUCTIONS TO VISIBILITY.

NCZ001-053-055-056-065-067-260400-
WESTERN NORTH CAROLINA

CITY           SKY/WX    TMP DP  RH WIND       PRES   REMARKS
ASHEVILLE      CLEAR     39  18  42 N16G23    29.94R WCI  30
JEFFERSON      CLEAR     32  15  50 NW10G17   29.86R WCI  24
MORGANTON      CLEAR     45  16  31 W6        29.96R
HICKORY        CLEAR     45  19  35 NW6       29.91R
RUTHERFORDTON  CLEAR     46  19  34 W13G24    29.93R
MOUNT AIRY     CLEAR     44  18  34 NW12G20   29.92R
BOONE          CLEAR     33  13  44 NW28G43   29.85R WCI  19
$$

NCZ021-022-025-041-071-084-088-260400-
CENTRAL NORTH CAROLINA

CITY           SKY/WX    TMP DP  RH WIND       PRES   REMARKS
CHARLOTTE      CLEAR     50  20  30 NW8       29.90R
GREENSBORO     CLEAR     49  17  28 NW22G29   29.86R
WINSTON-SALEM  CLEAR     49  13  23 W13G21    29.90R
RALEIGH-DURHAM CLEAR     58  20  22 NW10G24   29.82R
FORT BRAGG     CLEAR     61  17  18 NW13      29.81R
FAYETTEVILLE     N/A    N/A N/A N/A MISG      29.81R
BURLINGTON     CLEAR     53  17  24 NW12G20   29.84R
LAURINBURG     CLEAR     62  18  18 NW13      29.83R
$$

NCZ011-015-027-028-043-044-047-080-103-260400-
NORTHEASTERN NORTH CAROLINA

CITY           SKY/WX    TMP DP  RH WIND       PRES   REMARKS
ROCKY MT-WILSO CLEAR     60  32  34 NW8       29.78R
GREENVILLE     CLEAR     63  41  45 N8        29.79R
WASHINGTON     PTCLDY    62  43  49 NW8       29.76R
ELIZABETH CITY CLOUDY    63  41  44 NW18G25   29.73R
MANTEO         MOCLDY    63  52  67 N10G16    29.72R
CAPE HATTERAS  PTCLDY    67  60  78 SW17G29   29.70R HAZE
$$

NCZ078-087-090-091-093-098-101-260400-
SOUTHEASTERN NORTH CAROLINA

CITY           SKY/WX    TMP DP  RH WIND       PRES   REMARKS
LUMBERTON      CLEAR     63  20  19 W12       29.82R
GOLDSBORO      CLEAR     65  28  25 W12       29.76R
KENANSVILLE    PTCLDY    66  27  22 NW14G22   29.78R
NEW BERN       CLEAR     65  58  78 SW9       29.74R
CHERRY POINT   PTCLDY    64  58  80 SW10      29.75R
BEAUFORT       PTCLDY    64  60  87 SW16G23   29.74R
JACKSONVILLE   PTCLDY    64  58  80 W8        29.76R
WILMINGTON     PTCLDY    65  50  58 W16       29.79R
$$




USA.gov is the U.S. government's official web portal to all federal, state and local government web resources and services.